Wind_Speed
8 8 8 7 7 7 7 7 7 7 7 7 7 7 8 8 8 9 9 10 10 11 12 12 12 12 13 15 17 18 19 20 19 19 19 13 8 11 11 8 9 12 12 12 13 12 12 13 13 14 14 11 10 9 9 9 7 4 2 2 3 4 5 4 6 4 3 6 7 13 16 8 7 9 6 11 14 16 13 10 11 7 11 21 18 29 38 33
8 8 9 9 8 8 8 8 8 8 8 7 7 8 8 8 8 8 8 9 10 11 12 13 13 13 14 16 17 19 21 21 23 19 12 5 4 9 13 11 8 11 13 12 12 13 12 12 15 15 15 12 8 8 8 8 10 7 3 2 5 5 5 4 5 4 5 8 10 17 18 8 8 9 1 3 6 8 12 10 11 15 17 21 25 35 35 34
9 9 9 9 9 9 9 9 9 9 9 8 8 8 8 9 9 8 8 9 9 10 12 13 13 14 14 16 18 19 21 24 23 11 1 2 5 4 10 13 8 10 11 10 11 11 9 10 14 15 14 10 8 9 7 7 9 10 6 2 7 5 5 9 10 10 14 16 11 15 17 13 15 10 3 4 4 3 5 9 11 16 23 28 34 36 33 36
10 10 10 10 10 10 10 10 10 10 10 10 10 9 9 9 9 9 9 9 10 11 11 12 14 14 15 17 18 18 21 22 13 2 4 4 6 5 4 9 8 9 10 10 10 11 9 9 13 14 13 7 7 8 6 8 7 6 8 5 6 3 5 12 13 15 21 20 14 15 17 16 18 8 7 10 7 2 5 16 18 22 32 37 38 35 34 36
10 10 11 11 11 11 11 11 11 11 11 11 11 11 10 10 10 10 10 10 11 11 12 12 13 14 16 16 16 17 17 11 0 6 2 4 5 6 2 5 6 8 11 11 11 12 11 12 13 12 9 4 5 5 5 11 8 2 6 10 8 4 6 13 15 18 22 21 17 12 12 14 13 2 14 15 6 5 12 20 23 29 36 40 41 38 36 37
10 11 11 11 12 12 12 12 12 12 12 12 12 12 12 12 12 11 11 11 11 12 12 12 12 13 14 15 16 16 10 3 2 1 3 4 3 5 3 3 5 7 10 12 12 13 14 14 13 10 7 2 4 5 4 8 8 3 6 10 11 10 9 14 19 22 24 19 15 12 14 17 11 2 15 15 8 10 15 21 24 29 34 39 42 39 38 38
11 11 11 12 12 12 12 12 13 13 13 13 13 13 13 13 13 13 12 11 12 13 13 13 13 13 13 14 15 13 11 10 6 3 6 4 1 2 3 1 3 6 10 13 13 15 17 15 12 9 5 2 3 5 6 9 7 5 6 7 11 14 13 19 23 25 27 20 21 23 19 17 13 5 10 15 15 12 13 19 25 29 31 34 37 38 39 39
10 11 12 12 12 13 13 13 13 13 14 14 14 14 14 14 14 14 13 13 13 13 13 13 12 13 13 13 12 12 14 12 4 4 5 3 4 1 1 1 2 4 7 11 14 16 18 16 13 10 4 2 4 3 6 7 5 6 7 8 10 14 17 22 23 23 26 24 26 25 14 18 21 8 5 9 14 14 16 21 26 30 30 31 34 35 37 37
10 11 11 12 12 12 13 13 14 14 14 14 15 15 15 15 15 14 14 13 14 13 14 13 13 13 13 13 11 10 12 8 3 5 5 5 5 2 3 4 4 5 5 9 13 15 18 17 15 12 5 4 7 6 5 2 3 6 9 11 9 13 18 20 19 19 22 21 20 14 9 21 22 6 2 2 9 16 19 23 29 32 31 32 34 34 37 37
11 11 11 12 12 12 13 13 14 14 14 14 15 15 15 16 16 15 14 14 15 14 14 14 13 13 14 13 7 4 7 4 2 4 7 7 5 4 5 5 6 6 6 9 13 16 20 19 17 13 5 4 5 7 6 4 7 9 10 11 11 14 19 18 16 20 20 17 16 9 9 21 16 3 2 5 14 18 21 26 30 32 33 34 34 35 37 37
11 11 12 12 12 12 13 13 14 14 14 14 14 15 15 16 16 16 15 15 15 15 14 14 14 14 14 13 8 6 7 4 4 5 7 8 7 6 7 7 8 7 6 8 12 17 19 18 15 10 4 3 3 7 6 6 9 12 10 10 11 12 14 13 12 17 14 10 15 12 11 17 8 3 7 13 20 21 25 29 29 31 32 33 34 34 35 37
11 12 12 12 12 13 13 14 14 14 14 14 14 15 15 16 17 17 16 15 16 16 15 15 14 15 14 16 17 9 5 6 5 7 8 9 9 8 8 8 9 9 8 8 9 13 18 18 15 11 5 3 2 4 5 8 10 10 6 5 9 8 8 9 9 13 9 4 13 9 5 10 3 5 9 19 24 23 27 30 29 30 30 30 32 32 34 37
12 13 13 13 13 13 14 14 15 15 15 14 14 15 15 16 17 17 17 16 17 16 16 15 15 16 13 17 18 8 8 12 12 14 12 10 10 9 8 9 9 10 9 9 7 9 18 19 15 13 8 4 3 5 9 14 11 7 3 1 5 7 7 7 5 9 6 5 10 6 2 8 6 10 10 22 26 24 24 27 29 28 28 28 29 31 33 35
13 13 14 14 14 14 15 15 16 16 15 15 14 15 15 16 17 17 17 17 17 16 16 16 15 15 12 18 19 13 14 17 19 23 17 13 12 10 9 9 9 9 8 7 5 6 15 19 16 12 10 9 9 10 10 9 5 3 3 2 2 3 5 7 4 3 2 5 7 10 3 6 8 13 11 24 29 28 24 24 28 28 28 29 30 31 32 35
14 14 14 15 15 15 16 16 17 17 17 16 15 15 16 17 18 17 17 18 17 16 16 15 15 13 13 22 21 11 11 15 18 20 18 18 15 11 10 9 8 7 7 7 5 4 9 15 14 10 11 13 11 6 4 4 3 2 2 4 3 2 4 8 6 3 4 5 5 10 4 5 7 13 13 26 29 30 26 25 27 27 29 30 30 30 31 34
15 15 14 15 15 15 16 17 17 18 17 17 16 16 16 17 18 17 18 18 17 16 14 13 12 9 9 14 10 4 7 10 10 10 12 19 18 13 10 9 8 7 8 7 5 5 8 10 11 12 13 10 4 3 1 4 4 3 1 4 4 3 4 6 5 4 6 5 2 5 4 3 6 11 11 27 30 28 25 24 27 28 30 31 30 30 30 33
15 15 15 15 15 15 16 16 17 17 17 18 16 15 16 18 17 16 17 16 15 13 10 9 7 7 11 11 8 9 8 5 4 6 7 16 18 12 10 11 10 8 9 9 9 10 10 8 7 8 8 4 2 3 0 4 5 4 2 2 3 4 4 4 5 5 1 2 3 2 3 5 7 9 8 25 31 25 22 23 27 28 30 32 31 30 30 34
16 15 15 15 15 15 15 16 16 16 17 16 16 15 15 14 14 13 13 12 9 5 6 8 4 3 9 10 8 9 5 2 4 7 7 10 16 13 10 11 10 10 9 8 10 10 9 7 4 2 2 2 2 4 3 5 3 1 1 1 3 3 4 5 4 4 6 2 3 4 4 7 10 11 6 22 30 24 22 26 28 30 30 31 31 30 31 30
16 15 15 15 15 15 15 16 16 16 16 14 14 14 11 11 11 7 6 5 4 3 2 6 7 3 7 10 10 9 8 10 11 11 9 7 15 15 12 11 11 11 6 3 5 7 8 4 2 2 3 3 4 5 6 5 5 3 2 3 3 4 6 7 5 4 6 6 6 6 6 8 10 12 6 18 29 26 25 26 25 27 27 28 28 27 27 21
15 15 15 15 15 15 14 15 15 16 16 13 11 9 8 11 8 3 9 11 13 12 12 13 14 18 22 24 22 19 17 16 15 12 8 6 13 16 15 14 11 8 4 4 4 4 6 4 4 5 4 5 6 7 6 4 1 1 2 3 4 5 8 9 5 4 5 5 7 6 7 9 10 14 8 14 26 22 20 19 19 23 24 27 25 21 21 18
16 15 15 16 15 14 14 14 15 14 15 12 9 8 8 12 6 5 13 17 20 21 21 23 22 26 32 31 27 23 18 15 15 14 8 6 13 14 13 13 6 5 4 4 3 1 4 6 6 5 6 6 6 6 5 3 1 1 3 5 5 5 8 9 5 7 5 1 6 6 6 9 11 14 10 11 18 16 20 19 19 24 25 24 21 19 22 22
16 16 15 16 15 14 13 14 13 13 14 10 6 6 8 12 9 7 10 12 22 26 24 25 24 29 36 34 30 25 16 13 15 16 9 8 15 13 11 10 5 4 3 2 2 1 2 6 6 4 6 5 3 2 4 3 3 3 2 2 5 4 5 7 5 5 3 2 5 8 5 10 13 14 10 9 13 17 29 32 29 31 27 23 23 26 31 30
16 16 16 15 14 13 12 13 12 12 12 7 4 5 7 10 11 10 6 7 20 27 24 25 26 30 35 34 29 22 15 13 14 18 12 10 17 17 12 9 6 5 3 3 5 3 4 6 7 6 5 4 3 3 2 2 2 3 3 2 5 3 2 5 4 4 4 1 6 8 5 9 11 10 10 7 14 19 31 39 38 33 27 26 29 33 38 36
16 16 16 15 14 12 11 12 11 9 8 5 4 5 5 8 11 14 7 5 11 16 16 20 23 28 34 29 21 17 19 17 14 18 17 13 17 17 12 8 6 5 4 6 8 6 8 7 5 6 6 6 5 5 4 3 4 3 5 6 5 4 4 7 5 5 6 4 5 4 5 6 6 6 8 1 10 15 23 30 26 19 19 25 30 34 38 37
16 17 16 16 15 12 11 11 7 6 7 6 5 6 5 7 10 13 7 3 6 8 8 10 13 21 24 17 13 16 16 15 19 21 19 19 20 13 8 9 7 5 6 7 7 6 10 8 5 6 5 6 6 6 5 6 4 4 6 9 9 8 9 10 7 4 5 5 4 1 3 6 6 6 7 2 6 9 14 18 14 15 21 28 33 35 35 34
17 17 17 15 15 13 9 6 5 7 6 4 4 5 5 6 8 10 4 2 4 5 3 2 5 7 8 10 14 13 5 9 19 22 20 20 22 15 7 6 4 5 7 5 4 4 6 5 7 6 5 6 6 6 5 8 4 5 6 10 12 11 10 10 7 1 1 5 4 3 3 5 7 6 7 3 5 7 8 10 10 17 24 29 34 35 35 35
16 17 17 15 14 14 10 5 6 7 3 2 4 5 5 5 6 7 3 4 4 4 0 2 4 2 2 10 19 15 2 4 9 18 25 21 20 20 10 4 3 4 5 4 2 3 4 5 5 5 6 5 5 6 6 10 6 5 6 9 10 9 9 9 6 5 4 4 3 3 4 2 6 6 5 4 6 5 5 7 7 13 22 28 33 35 36 36
16 17 16 14 12 12 11 8 7 5 3 4 6 5 5 4 5 4 3 3 3 2 1 2 2 4 3 10 23 16 1 5 5 13 29 23 17 18 9 6 7 6 5 6 3 4 2 6 6 6 5 4 6 7 7 11 6 9 7 9 8 8 8 7 6 5 3 1 5 5 2 1 5 6 5 5 7 6 5 8 7 12 20 26 31 33 35 36
15 16 16 14 11 11 11 10 7 5 5 5 6 5 4 3 3 2 4 1 3 2 2 1 4 6 1 10 20 14 3 3 2 9 25 23 20 16 7 10 10 5 5 6 6 6 2 6 7 7 5 5 8 9 8 13 8 8 5 5 4 3 3 3 5 4 0 0 6 6 2 2 5 5 5 6 5 2 3 5 7 14 20 24 30 32 33 37
15 15 15 14 12 10 9 9 6 4 4 3 4 3 4 3 1 3 1 3 3 2 4 5 8 10 3 4 8 11 5 2 2 9 17 17 21 16 6 10 9 3 1 1 5 7 4 4 4 5 6 7 9 8 9 16 13 3 3 3 2 2 2 1 2 3 2 2 8 8 5 5 4 4 2 2 3 4 5 4 7 14 19 22 28 32 35 37
14 13 14 14 12 10 9 7 5 5 4 1 2 2 6 3 3 4 3 4 2 4 7 5 9 13 8 2 5 6 4 3 3 9 8 6 11 10 1 3 3 2 2 3 4 6 6 4 3 5 11 9 7 6 5 11 11 3 3 2 1 3 3 3 4 3 2 5 8 7 5 8 4 4 1 3 6 6 7 9 12 14 17 22 27 32 36 37
13 11 12 12 11 9 8 6 6 7 6 3 2 1 5 2 2 3 3 5 3 3 5 5 8 11 10 6 4 5 3 3 2 5 5 5 6 6 4 4 4 1 2 3 3 5 5 5 3 5 10 9 5 4 3 1 4 5 3 4 2 2 2 1 3 0 2 6 6 3 2 5 5 5 4 7 8 7 8 9 15 18 19 23 27 30 34 36
10 10 10 9 7 5 5 6 7 8 7 4 1 2 5 4 2 4 3 3 1 3 4 6 10 11 9 6 3 4 3 2 2 1 2 4 5 6 6 4 5 4 3 4 3 3 4 6 4 2 6 7 8 4 2 0 3 6 5 5 5 2 1 1 4 2 2 6 4 2 1 1 3 3 5 9 8 6 7 9 14 20 22 24 27 30 33 34
8 9 7 3 2 4 4 5 6 7 6 4 0 3 5 2 4 3 2 3 3 5 5 7 11 11 5 3 4 2 2 1 0 2 2 2 3 5 5 3 4 4 2 2 2 3 2 4 4 4 3 3 7 8 7 5 5 5 5 6 5 4 4 3 4 3 4 4 3 4 0 1 2 2 6 7 6 5 10 12 13 18 22 26 28 30 31 32
7 7 2 3 3 4 5 3 2 4 5 5 3 5 3 3 3 1 1 3 2 5 8 9 8 5 4 3 5 4 1 1 1 2 2 3 4 4 4 5 6 5 4 3 2 2 3 5 7 6 4 2 3 6 6 6 3 3 2 5 3 4 5 2 3 5 3 1 2 3 0 1 3 2 7 7 7 11 14 14 15 17 20 25 27 28 29 30
5 3 2 6 4 3 6 6 3 3 6 6 5 3 4 3 2 2 1 3 3 5 9 9 4 2 4 4 5 7 5 1 1 2 1 3 3 4 3 3 6 7 6 4 3 1 2 5 7 4 4 5 6 6 4 4 3 2 2 3 3 4 7 3 2 1 1 1 1 1 1 2 2 1 7 9 7 8 8 9 12 13 17 22 25 26 27 27
2 1 5 7 5 3 5 6 6 5 6 6 4 1 4 2 3 3 2 4 5 5 4 4 3 2 3 4 4 7 6 3 1 0 1 1 1 3 3 1 2 6 8 5 1 2 2 4 7 5 6 8 6 3 1 1 3 5 2 5 2 3 5 3 1 2 3 1 2 1 1 2 1 0 5 7 7 6 5 3 7 10 11 12 16 21 24 25
3 5 6 7 6 5 4 6 5 4 4 5 2 2 2 2 2 2 5 6 5 4 1 0 2 1 2 4 5 6 4 2 1 1 1 1 2 2 1 1 2 2 4 7 2 2 2 2 7 5 5 7 5 2 2 5 1 5 4 3 3 2 1 1 2 1 1 2 2 2 2 2 2 3 4 3 3 2 3 4 1 6 5 3 3 8 15 19
4 5 5 5 7 6 5 4 3 3 4 4 0 2 1 3 5 6 9 7 2 2 1 2 2 1 3 3 4 4 3 2 1 1 1 1 2 1 2 1 1 5 4 6 5 1 1 1 6 5 3 4 5 3 1 5 5 2 2 1 2 3 4 2 2 3 3 3 2 0 2 2 4 4 4 3 3 2 4 1 2 4 7 5 7 10 6 4
3 3 4 5 7 7 6 4 2 3 3 1 2 3 2 3 5 8 11 7 3 2 2 3 2 2 4 3 2 3 3 2 1 1 1 1 2 2 1 2 2 1 3 4 4 1 2 2 3 6 5 3 3 0 4 4 1 2 1 0 3 1 3 2 1 1 3 4 3 2 1 4 4 3 3 3 2 2 5 6 4 4 7 12 9 3 6 8
3 3 3 6 8 7 6 3 0 2 1 1 2 3 3 3 4 7 10 8 4 5 5 4 3 3 4 3 2 3 3 2 1 1 1 1 2 2 3 4 4 3 1 4 3 1 1 1 1 4 5 3 3 3 1 5 7 5 2 1 1 2 4 3 1 1 2 3 4 5 3 5 4 1 1 1 2 2 2 3 6 5 7 13 14 12 9 6
4 3 2 7 8 6 5 3 1 0 2 2 3 3 4 5 3 4 7 6 4 4 5 4 2 3 3 2 2 3 2 2 2 1 1 2 2 1 3 2 3 3 3 1 1 2 2 3 2 2 3 4 6 4 3 1 7 9 4 2 1 1 3 4 3 2 1 2 1 3 2 4 3 1 3 4 6 9 10 6 4 7 10 12 11 11 11 9
3 4 4 7 8 6 3 1 3 2 1 3 4 4 5 4 2 3 4 3 2 2 1 1 1 1 1 2 2 3 1 1 2 2 1 1 1 2 5 4 1 3 3 1 1 1 1 3 1 3 3 4 6 5 5 4 3 7 3 3 3 1 1 4 5 3 3 2 1 3 1 3 2 2 4 6 10 14 15 12 8 9 13 14 11 11 11 11
4 6 7 8 9 6 2 1 1 2 3 4 3 4 6 3 2 3 3 2 2 2 1 1 2 1 1 1 1 3 2 1 2 3 1 1 2 4 7 6 3 3 3 1 2 2 0 0 2 0 2 4 6 6 5 5 3 3 1 1 1 1 1 2 1 3 2 3 4 5 2 4 2 3 3 6 9 10 12 14 12 12 14 16 15 14 14 13
5 5 4 7 9 6 2 3 3 2 3 2 3 4 5 4 4 4 3 3 4 1 1 2 4 2 2 2 2 3 3 2 1 2 2 2 3 6 9 7 5 4 4 4 3 4 3 1 2 3 3 3 2 2 3 3 3 2 1 2 3 5 5 1 1 3 1 3 3 5 4 3 4 5 4 6 7 9 12 15 16 15 16 17 18 19 19 19
5 2 1 3 4 2 1 3 2 2 2 0 2 3 3 3 6 8 3 1 6 5 1 2 4 2 2 4 3 4 4 3 2 3 3 4 3 4 8 10 10 6 6 10 8 3 4 2 2 4 4 4 5 5 5 2 1 1 1 3 4 3 5 5 3 2 2 2 1 2 4 6 8 8 7 7 8 9 10 13 17 18 17 18 21 22 22 23
4 1 2 2 1 1 1 2 1 2 2 1 2 2 3 2 4 6 3 2 7 8 2 2 4 3 3 3 2 2 4 4 4 3 3 4 3 4 8 10 11 8 6 9 9 3 5 4 3 3 3 2 1 3 3 1 3 1 3 5 5 4 5 7 4 0 2 4 1 4 4 8 9 8 9 8 8 8 9 11 15 17 17 20 23 24 24 24
3 1 2 3 2 1 1 1 1 2 0 1 2 1 2 3 3 3 3 4 6 7 4 3 6 5 4 3 2 1 4 3 4 3 3 5 4 5 7 7 8 10 7 6 7 4 5 1 2 1 4 7 7 5 4 6 4 5 6 6 7 6 7 7 2 2 4 4 4 4 4 5 5 8 9 8 8 10 11 14 16 17 19 21 24 26 26 26
4 3 2 3 3 3 3 2 1 3 2 1 1 1 1 2 3 2 3 3 5 6 4 2 5 6 5 4 3 2 1 1 1 3 2 4 5 3 4 3 5 9 8 4 4 3 4 1 1 0 3 7 9 7 5 7 5 5 7 7 8 6 6 6 2 3 5 3 3 6 8 4 4 6 7 10 16 17 16 16 16 17 20 23 25 28 29 28
4 3 1 3 3 1 2 1 2 3 3 3 2 2 1 1 2 4 2 2 1 4 3 2 6 6 2 3 4 2 3 4 3 2 1 2 3 3 3 2 3 6 5 3 2 3 3 2 1 1 3 5 7 6 5 6 5 5 7 9 10 8 5 5 3 2 4 4 4 7 8 4 4 6 10 16 21 20 17 15 14 15 18 24 27 28 29 29
5 3 2 4 2 4 2 2 2 3 2 3 1 2 2 1 2 3 3 1 2 2 1 1 5 4 2 4 3 2 6 5 6 7 5 2 3 3 2 2 3 5 3 2 1 2 3 2 1 2 3 2 5 4 4 4 4 6 7 10 11 7 3 3 2 2 1 5 8 6 4 2 2 6 12 16 19 18 15 13 14 14 15 20 25 27 29 30
3 2 3 5 2 5 3 2 3 3 1 2 3 2 2 3 5 4 1 3 2 1 2 3 3 1 3 3 4 6 8 9 12 11 6 5 10 11 11 10 8 4 2 2 1 1 3 3 1 2 3 1 3 3 3 3 3 2 4 7 7 5 3 3 3 5 4 3 7 4 3 3 3 7 11 11 12 14 13 12 13 12 13 16 21 25 28 30
Wind_Direction
343 343 342 340 341 341 344 346 342 339 335 330 331 331 331 328 323 318 309 302 297 296 296 298 301 303 309 310 309 310 312 311 312 308 298 296 286 263 263 262 242 231 224 211 209 210 207 204 193 190 191 188 198 198 195 206 196 178 123 142 226 232 227 197 191 210 233 287 311 316 329 353 331 340 49 95 96 97 102 102 136 168 167 168 171 162 162 162
338 338 336 335 333 331 332 332 332 333 331 331 329 326 326 326 326 325 322 314 305 298 293 295 298 301 305 304 306 309 311 313 311 305 298 311 296 262 253 254 246 232 228 221 215 209 210 204 189 189 189 182 190 189 191 205 193 184 128 155 226 222 225 212 218 261 287 290 304 303 309 334 325 318 270 99 54 84 90 81 110 122 138 158 163 161 164 165
334 333 333 331 328 328 326 324 324 322 323 325 324 326 324 319 319 320 322 319 313 306 298 296 295 299 301 299 303 308 312 315 313 302 251 39 360 307 251 245 241 232 227 224 219 209 213 201 188 186 182 181 186 182 187 187 186 195 176 204 238 221 257 270 268 278 286 286 294 296 304 319 317 316 198 142 89 89 117 127 124 126 141 153 160 162 165 166
332 330 329 328 326 325 324 322 320 317 317 317 318 320 318 316 313 311 314 314 313 310 305 301 296 297 295 296 303 307 317 320 314 185 128 39 16 5 260 236 231 223 215 218 213 199 200 186 183 184 179 189 197 196 212 197 189 190 182 220 240 203 264 271 275 280 284 285 280 289 307 309 310 317 174 146 106 338 204 169 161 156 155 157 164 165 165 166
330 327 326 324 323 322 321 320 316 316 315 314 314 311 312 313 311 309 309 309 311 311 310 308 301 298 294 296 301 306 324 332 24 130 91 22 26 18 350 224 220 216 215 217 203 188 186 175 173 179 181 193 198 204 233 214 211 206 216 238 249 244 261 273 284 286 284 287 288 291 299 294 308 316 170 158 142 224 205 185 175 168 164 165 169 167 166 166
326 325 324 321 320 319 318 316 315 314 312 312 311 308 308 306 307 309 308 309 309 310 313 313 308 303 297 296 299 306 318 291 229 181 293 314 357 20 42 198 211 213 216 210 198 185 180 172 170 177 178 186 207 209 240 231 219 243 260 249 255 253 251 277 286 287 286 288 290 282 285 293 310 213 186 186 206 223 203 187 176 171 170 169 169 168 168 167
325 324 323 321 320 318 317 315 313 312 310 309 307 307 306 304 305 305 307 309 306 309 312 315 315 307 302 300 301 303 289 273 279 266 271 281 242 20 50 168 213 226 220 210 201 186 182 180 175 174 155 161 221 215 252 261 228 220 266 263 267 264 259 276 280 283 284 280 279 280 290 294 285 247 203 213 228 233 207 184 172 169 168 168 169 170 171 170
324 323 322 322 320 320 318 315 313 310 309 307 306 305 304 303 303 303 306 305 303 306 307 312 316 310 309 305 304 304 289 281 263 225 252 220 183 219 341 260 239 247 232 217 209 191 186 184 181 177 144 205 220 223 257 272 251 217 246 264 274 272 269 276 278 280 281 280 283 285 286 275 272 254 184 225 228 215 197 179 170 167 165 169 172 172 172 172
324 323 323 321 321 321 318 316 313 311 310 308 307 304 303 303 301 302 302 301 301 301 302 307 309 309 310 305 308 309 293 285 237 228 218 186 183 207 278 282 272 269 250 222 210 196 192 189 187 181 163 230 232 255 261 253 254 221 231 255 265 271 274 278 277 277 280 282 283 284 274 272 276 261 159 208 185 187 183 171 168 168 168 172 175 175 174 173
324 322 323 321 321 321 317 316 313 312 312 309 308 306 304 303 300 300 299 299 298 296 299 300 301 304 302 303 312 303 289 282 218 220 193 190 195 215 271 294 292 286 265 229 211 203 201 195 191 186 196 252 237 257 253 199 246 257 257 266 267 271 276 277 273 274 279 282 276 261 258 273 275 236 215 167 167 177 169 164 169 171 172 176 178 179 178 175
324 323 322 321 320 319 316 314 312 311 310 309 309 307 305 303 301 298 296 296 295 296 298 295 298 297 295 294 272 252 283 267 222 226 203 197 201 232 271 288 294 292 278 251 227 216 208 197 189 182 202 260 268 280 260 228 257 275 286 291 286 285 283 272 264 270 272 279 270 244 246 274 276 210 213 176 171 175 166 163 170 174 176 180 180 181 180 177
324 322 321 318 316 315 313 311 310 309 309 310 309 308 308 304 301 297 296 295 294 296 296 296 297 292 292 283 266 257 280 270 247 235 209 196 208 234 257 265 275 281 285 278 255 227 207 197 191 188 211 252 319 320 295 298 297 286 290 299 298 316 304 265 246 256 244 251 268 239 256 290 274 244 214 173 172 171 166 165 171 177 180 182 182 182 182 181
322 320 317 315 312 311 310 308 307 307 307 309 309 309 308 304 302 299 297 294 293 295 296 297 294 292 291 274 271 279 277 271 261 243 219 202 214 222 232 244 257 266 273 279 282 241 208 199 198 210 239 279 300 292 294 305 307 288 277 276 309 330 307 267 242 248 228 243 254 191 227 284 259 261 206 168 171 164 162 169 174 180 182 184 184 184 185 184
323 319 315 311 309 309 308 306 306 305 305 308 308 307 305 303 300 298 297 294 293 294 295 296 293 293 280 269 284 299 281 266 251 243 230 218 220 213 220 238 249 248 249 258 285 260 216 208 212 231 261 273 273 286 300 307 312 311 298 291 311 297 280 295 308 269 238 263 222 164 209 263 256 269 203 172 174 168 168 175 178 182 185 187 188 187 187 187
322 319 315 311 309 308 306 305 303 304 305 306 305 304 303 300 298 297 295 292 291 292 293 293 291 291 281 282 291 296 281 266 252 247 233 222 220 217 221 234 245 237 236 245 261 269 229 215 219 240 267 271 270 283 318 329 341 1 286 287 311 216 267 308 306 240 225 264 191 157 227 266 254 270 208 177 178 174 173 177 181 186 187 189 190 190 191 191
320 319 316 313 312 309 306 304 303 304 304 304 304 305 302 297 296 294 291 289 290 290 290 286 283 285 289 291 291 283 296 289 275 269 234 215 217 224 222 231 241 231 231 241 246 252 236 224 230 246 258 266 242 190 347 334 324 2 219 257 285 270 298 322 309 256 221 246 248 172 217 261 262 275 206 178 182 180 176 180 185 189 190 191 192 192 192 194
319 318 317 317 315 312 309 306 305 305 304 304 305 306 302 299 297 292 287 285 285 285 280 269 275 287 272 269 272 275 294 322 328 315 246 211 214 224 215 221 234 231 236 245 253 253 243 233 233 249 252 240 140 133 54 280 270 321 355 264 261 259 279 302 305 310 313 189 274 262 228 247 263 282 198 178 186 184 181 187 188 191 193 193 194 192 193 196
318 317 318 319 318 317 313 311 311 308 305 305 309 312 309 311 310 299 289 282 278 282 269 244 225 314 271 257 274 273 260 316 320 317 300 224 209 214 212 217 230 236 237 244 250 241 232 230 206 240 273 205 126 118 178 231 198 184 327 291 283 282 265 268 271 306 354 15 270 305 293 267 267 278 219 182 188 187 191 194 191 194 194 194 196 194 195 195
317 317 319 319 319 319 316 316 315 310 307 307 315 319 324 339 333 320 323 299 235 195 259 229 197 221 270 269 282 283 270 282 294 295 299 247 209 208 213 221 232 234 218 204 240 211 197 209 193 237 252 207 187 161 191 203 147 159 208 188 251 291 277 267 253 265 335 343 290 288 275 274 273 272 251 181 187 193 200 200 194 195 194 194 195 194 192 185
316 316 317 318 318 318 318 319 314 311 311 313 331 343 359 2 351 346 343 307 265 262 274 264 249 256 268 271 276 287 287 284 285 278 286 264 216 204 210 223 232 229 191 158 213 198 173 199 237 225 195 169 192 198 197 199 130 323 291 261 257 273 276 276 277 276 320 328 281 276 265 275 272 269 270 179 184 196 203 204 199 195 194 194 190 184 179 173
314 314 315 316 316 319 319 317 312 313 315 317 347 17 23 12 4 321 325 307 286 281 275 272 268 264 267 268 271 282 293 292 276 255 261 251 212 197 205 215 212 226 224 179 195 167 159 210 236 203 176 180 198 197 188 209 292 283 273 292 285 265 271 280 283 275 283 247 262 285 285 280 267 266 273 168 174 196 198 202 204 196 194 189 175 159 158 160
313 311 313 314 316 320 318 314 310 312 315 315 346 23 21 15 11 328 311 298 292 288 278 273 265 261 264 265 266 269 276 283 268 246 237 210 200 193 190 190 181 218 235 156 184 279 214 233 242 199 178 189 225 193 168 202 236 227 240 291 278 276 296 291 284 282 286 129 272 295 292 276 272 271 269 181 173 196 196 199 205 200 191 175 160 150 147 149
312 310 312 313 316 321 317 311 307 308 312 308 323 359 8 5 7 349 311 269 290 288 275 265 255 254 260 261 260 256 246 248 252 241 228 195 195 194 182 175 181 198 187 171 190 200 233 248 234 205 169 164 254 264 185 227 253 216 205 231 263 284 333 285 293 326 317 270 265 289 297 277 282 289 282 212 182 191 195 201 206 201 188 171 161 152 149 151
311 310 311 314 316 320 318 309 305 310 310 302 306 314 339 349 357 353 330 255 284 286 275 269 256 249 254 258 254 236 227 228 229 229 221 197 191 191 191 180 161 183 198 190 189 204 240 244 190 159 153 171 228 257 217 227 260 231 208 215 246 260 236 243 271 322 320 301 237 271 323 295 292 302 302 258 165 182 193 200 203 191 174 162 153 150 153 158
312 310 311 316 317 319 320 308 300 315 310 298 295 286 310 340 345 346 336 283 289 283 286 282 252 245 248 250 237 218 219 226 224 221 213 203 195 184 192 188 166 196 208 187 183 215 246 238 159 141 161 175 205 246 216 193 233 268 227 211 217 234 240 246 272 326 343 316 247 114 15 296 300 295 286 346 126 168 186 191 181 152 150 150 148 151 156 160
312 311 313 318 318 320 324 308 296 319 317 289 280 283 301 319 329 335 345 26 314 271 297 279 226 244 239 218 202 188 195 243 232 221 206 206 204 191 181 181 171 204 195 176 181 222 241 208 163 172 185 175 197 244 216 169 189 267 235 203 206 218 235 250 262 238 219 271 256 93 98 266 305 309 294 342 120 158 175 173 153 142 146 148 150 154 158 162
313 312 315 319 320 321 325 312 305 317 316 278 287 284 292 301 321 329 358 34 320 258 284 210 204 10 294 209 179 158 135 243 219 211 201 200 203 198 197 181 168 204 175 133 221 241 200 179 180 186 176 175 205 242 210 157 154 251 215 176 195 211 223 239 232 203 221 265 300 29 116 211 292 284 300 15 94 114 134 141 133 141 146 149 153 155 159 164
314 313 315 318 318 319 318 315 318 320 285 289 301 276 272 284 298 326 61 48 302 261 100 214 245 351 318 195 176 169 186 165 152 205 198 193 193 191 196 196 181 200 173 137 217 252 165 183 201 186 175 190 215 228 190 150 168 251 214 167 194 210 212 219 200 206 242 315 305 314 103 183 277 274 317 30 83 79 120 144 136 141 145 149 153 156 158 161
314 314 313 313 313 310 310 313 318 309 279 294 310 276 243 243 276 27 84 33 288 301 14 22 357 342 86 162 187 205 242 163 145 189 187 192 199 191 197 208 192 194 187 164 213 245 224 205 193 159 169 206 230 235 173 156 204 251 204 168 203 200 203 200 168 182 228 11 263 267 169 186 272 292 348 20 54 65 160 145 131 142 147 151 155 157 158 159
312 314 310 308 311 308 306 312 307 281 271 310 324 262 192 182 65 68 125 256 274 336 6 30 3 345 18 125 222 244 257 280 53 143 172 190 198 196 205 206 188 141 195 229 239 249 269 238 191 156 197 215 232 240 181 181 209 222 105 176 244 2 24 44 106 117 90 266 258 249 194 172 265 291 37 33 301 233 182 133 134 149 150 154 159 160 161 162
312 313 307 305 311 311 310 312 290 255 243 277 337 163 155 136 57 106 202 270 295 336 1 17 357 347 340 300 258 258 267 293 76 126 156 171 185 198 181 181 180 81 358 311 282 289 304 275 240 218 226 222 226 249 207 193 205 174 91 147 232 322 2 23 358 49 108 248 261 258 195 158 200 268 310 311 279 233 186 159 156 159 156 159 161 162 165 166
316 307 300 303 309 315 312 294 253 239 239 242 330 129 139 88 15 184 248 321 337 337 354 348 339 336 318 299 246 224 225 235 187 131 151 149 162 195 187 178 184 135 294 257 261 307 295 253 258 256 241 218 198 265 290 164 162 154 126 105 123 295 345 360 301 314 199 245 256 274 174 153 196 241 307 321 297 256 227 186 164 162 160 159 159 160 163 164
316 300 297 301 313 327 312 282 250 236 238 234 315 29 99 88 233 226 277 321 317 323 344 336 324 319 310 314 280 212 184 205 231 85 135 153 156 197 216 203 168 158 224 212 194 279 293 296 297 289 265 214 178 199 261 270 153 158 158 142 152 175 104 281 274 268 256 253 268 297 215 220 258 281 327 321 302 259 214 182 164 160 156 155 159 162 163 167
310 300 299 283 356 6 334 291 253 234 233 220 136 56 90 134 232 248 301 263 273 327 345 335 318 316 317 301 291 245 147 181 216 87 72 104 154 202 227 226 177 158 184 174 164 192 209 307 268 204 251 216 179 193 188 167 164 176 165 140 145 154 147 207 229 217 250 250 298 324 320 167 237 299 328 325 345 69 124 136 142 151 152 152 158 163 167 174
307 304 286 168 116 41 28 19 233 217 207 183 94 72 133 205 252 242 281 273 309 337 330 325 312 316 334 305 307 335 63 187 350 69 108 143 173 203 208 216 199 149 132 173 221 182 169 249 253 237 252 230 209 217 170 132 154 221 145 112 139 180 156 170 198 186 216 217 347 336 300 204 216 276 348 1 43 76 105 123 129 143 152 154 159 167 173 177
315 315 171 162 146 72 52 58 87 134 169 157 91 71 195 215 224 179 264 319 329 325 325 329 331 341 339 333 327 338 3 87 68 29 128 166 186 202 196 225 209 175 155 162 215 190 137 254 271 310 298 242 233 231 179 160 196 200 134 159 209 168 134 132 221 252 42 150 300 351 168 298 313 351 356 7 37 70 95 120 129 144 158 159 163 169 172 175
335 48 163 169 169 134 76 69 89 123 156 136 97 198 218 224 209 199 337 335 307 308 341 349 334 323 342 352 321 320 348 19 33 350 234 292 289 217 192 187 194 186 179 155 196 221 171 268 284 311 293 276 268 245 256 267 147 131 182 206 189 86 91 116 167 6 32 175 258 17 112 293 359 259 319 351 14 37 52 85 129 145 161 166 165 166 169 175
84 106 137 162 182 176 117 92 99 122 133 104 86 232 211 247 250 276 318 318 308 314 14 226 275 308 3 348 303 297 333 349 296 190 193 301 293 246 152 107 39 62 166 147 138 250 173 281 293 281 256 289 327 54 329 324 43 138 181 178 121 103 44 90 145 143 110 174 261 5 1 274 190 215 272 317 343 12 35 3 57 125 112 50 69 145 165 175
88 104 110 145 185 180 141 128 120 90 75 82 171 247 213 248 267 294 302 301 285 284 287 226 235 323 324 292 264 282 315 303 246 187 141 172 234 255 74 150 45 37 64 116 134 241 80 126 286 283 243 303 354 57 192 303 336 46 135 83 51 134 160 182 163 158 153 154 194 22 5 281 225 218 216 224 275 219 164 203 351 87 97 78 18 13 29 101
98 106 103 143 180 176 158 170 140 73 62 109 192 227 249 255 270 293 301 300 262 245 261 239 235 274 279 276 267 279 301 301 219 184 193 192 228 253 206 172 145 68 26 60 101 136 37 85 262 294 318 337 341 270 188 189 23 16 139 43 341 71 126 158 139 107 134 142 164 164 203 263 250 226 206 220 282 233 186 175 149 104 125 143 144 73 30 46
115 96 109 153 171 176 166 171 129 66 101 202 212 226 266 286 277 293 307 308 273 238 237 245 245 230 250 297 299 274 310 328 270 188 220 211 190 245 225 182 164 164 345 13 42 124 9 97 205 302 330 320 271 280 193 136 119 118 137 85 283 165 124 126 229 317 99 128 160 160 187 263 267 314 15 357 9 351 297 172 147 124 130 140 143 151 157 139
121 81 121 159 174 190 171 145 328 17 155 235 274 257 277 293 284 295 315 314 282 244 238 247 251 234 245 272 266 271 340 344 308 295 242 225 188 223 291 232 177 132 124 207 255 184 146 104 108 282 280 248 257 303 351 67 105 103 92 57 108 134 102 125 187 236 96 92 131 119 122 264 274 56 70 53 46 35 23 28 82 93 109 122 131 144 146 132
113 87 130 161 180 195 180 34 337 329 239 281 296 285 288 289 279 311 321 314 288 288 285 277 291 300 273 264 288 314 331 44 346 323 258 273 256 284 332 340 354 63 87 147 241 159 118 84 93 280 303 300 293 322 338 321 66 85 55 41 78 359 230 162 177 176 142 152 130 86 90 257 270 84 103 89 74 61 45 36 42 64 86 100 113 127 122 105
108 99 134 166 184 199 213 251 291 292 283 304 332 325 318 298 259 305 308 288 298 305 319 303 304 343 307 279 341 323 312 95 49 4 3 346 335 345 358 10 22 37 59 181 198 154 124 55 124 109 358 345 325 332 339 331 4 77 76 10 39 62 95 175 187 77 111 199 157 133 214 246 165 117 99 84 85 84 73 65 60 60 75 90 101 107 107 105
115 99 133 171 190 214 244 204 183 210 266 320 349 328 327 316 309 315 272 269 316 322 174 311 295 272 312 355 14 330 334 81 78 15 14 337 335 358 7 31 67 75 67 64 96 132 136 145 139 140 164 191 234 269 263 285 333 7 84 42 25 45 54 54 159 89 143 226 129 138 203 213 149 140 116 102 109 112 101 92 89 83 83 92 100 102 105 110
122 99 118 162 192 214 224 215 180 150 203 35 13 320 324 319 321 330 309 312 355 358 33 332 311 299 17 28 22 343 345 4 12 42 25 338 321 343 4 44 71 71 63 53 47 97 117 65 65 119 149 182 197 223 232 204 107 332 334 40 47 52 56 73 88 68 222 188 114 214 194 145 152 159 141 132 128 119 109 103 106 106 102 100 101 103 106 109
112 123 143 139 230 9 30 288 242 138 205 161 120 318 322 303 312 339 2 19 359 357 22 25 5 22 11 2 48 355 331 342 10 33 13 343 307 313 359 46 58 39 50 46 22 51 103 38 2 72 74 53 223 259 291 75 96 33 356 15 23 30 55 74 82 24 139 123 222 259 185 148 160 159 144 141 130 116 111 110 113 115 114 109 106 107 109 108
100 131 143 143 194 215 47 299 217 130 90 141 131 306 328 339 333 343 342 341 358 9 29 10 2 13 343 328 118 66 331 352 13 356 4 1 331 327 1 35 39 29 44 42 19 66 112 43 324 93 56 30 13 353 29 72 74 39 30 20 8 24 68 86 118 191 135 142 222 213 155 144 143 134 136 135 117 107 108 116 120 118 115 111 107 108 108 105
106 112 123 129 170 189 167 180 155 75 44 16 6 319 252 345 331 288 300 345 356 358 38 53 329 334 346 2 94 104 315 129 19 324 4 7 330 339 10 356 9 25 38 38 17 61 107 82 292 130 65 37 13 357 36 72 74 41 28 17 11 28 82 97 112 156 129 141 195 136 110 75 66 107 119 112 110 110 110 114 116 114 116 114 108 107 106 104
108 109 130 116 99 106 155 162 83 63 17 350 354 303 264 341 317 290 305 71 13 323 27 66 309 306 346 33 72 121 222 178 168 237 154 41 341 360 24 311 312 357 19 39 358 8 70 119 226 58 70 33 6 10 46 67 80 65 29 11 10 15 49 72 77 110 103 90 88 99 101 76 31 65 95 107 112 111 107 107 107 110 117 116 111 109 107 106
108 96 128 131 76 1 9 22 43 76 19 357 335 281 304 309 309 309 294 216 180 241 292 263 283 294 356 18 43 218 240 215 203 223 214 193 262 252 212 236 304 336 359 39 357 5 66 95 17 57 81 9 349 16 40 32 52 58 26 3 357 355 2 19 6 340 76 122 115 102 113 129 46 79 99 108 111 107 101 98 99 107 116 114 111 110 108 108
130 116 132 135 85 359 16 40 34 72 51 306 263 258 290 309 333 5 352 290 299 317 310 264 229 301 348 339 321 295 283 278 277 275 264 242 248 243 241 255 270 267 211 151 67 48 102 116 99 71 90 30 331 9 29 13 23 20 352 347 335 310 305 326 344 352 346 136 139 149 159 131 97 95 97 96 99 97 88 83 91 103 107 106 110 112 109 108
Height
1507 1506 1506 1505 1504 1503 1502 1501 1500 1499 1498 1497 1497 1496 1495 1494 1493 1493 1492 1491 1491 1490 1489 1489 1488 1487 1487 1486 1484 1483 1482 1481 1480 1479 1477 1475 1475 1475 1475 1475 1476 1477 1477 1478 1479 1480 1480 1481 1483 1484 1485 1486 1488 1489 1490 1491 1493 1495 1497 1501 1501 1497 1492 1488 1485 1484 1482 1478 1475 1474 1474 1476 1474 1471 1469 1467 1467 1467 1469 1470 1470 1470 1471 1473 1475 1476 1478 1481
1507 1506 1505 1505 1504 1503 1502 1501 1500 1499 1498 1497 1496 1496 1495 1494 1493 1492 1491 1491 1490 1489 1489 1488 1488 1487 1486 1485 1484 1482 1481 1479 1478 1476 1475 1474 1474 1474 1473 1474 1475 1476 1476 1477 1478 1479 1480 1481 1482 1483 1484 1486 1487 1488 1490 1490 1492 1493 1496 1499 1497 1491 1486 1483 1482 1481 1479 1478 1476 1475 1474 1476 1475 1473 1471 1470 1471 1470 1470 1472 1472 1471 1472 1475 1476 1478 1480 1481
1507 1506 1505 1504 1503 1502 1502 1500 1500 1499 1498 1497 1496 1495 1494 1493 1492 1492 1491 1490 1489 1488 1488 1487 1487 1486 1486 1484 1483 1482 1480 1478 1476 1474 1474 1474 1473 1473 1472 1473 1474 1475 1476 1477 1478 1479 1480 1481 1482 1483 1484 1486 1487 1488 1489 1489 1490 1490 1494 1497 1490 1485 1483 1481 1481 1480 1479 1478 1477 1475 1473 1473 1473 1472 1471 1471 1472 1472 1470 1470 1472 1473 1473 1475 1477 1479 1480 1481
1506 1505 1505 1504 1503 1502 1501 1500 1499 1498 1497 1497 1496 1495 1494 1493 1492 1491 1490 1490 1489 1488 1487 1487 1486 1486 1485 1484 1483 1482 1480 1477 1473 1473 1474 1474 1473 1472 1472 1472 1474 1475 1476 1476 1477 1479 1480 1481 1482 1483 1484 1485 1486 1487 1487 1487 1488 1488 1490 1490 1484 1483 1483 1479 1480 1480 1478 1477 1476 1475 1473 1472 1471 1471 1470 1470 1473 1474 1471 1467 1467 1469 1471 1473 1476 1478 1479 1481
1506 1505 1504 1503 1502 1501 1501 1500 1499 1498 1497 1496 1495 1494 1493 1493 1492 1491 1490 1489 1488 1487 1486 1486 1485 1485 1484 1483 1483 1481 1482 1478 1473 1473 1474 1473 1473 1473 1472 1472 1474 1475 1475 1476 1477 1478 1479 1480 1481 1483 1484 1485 1486 1487 1486 1485 1487 1488 1486 1483 1482 1483 1481 1477 1479 1479 1477 1476 1475 1474 1473 1470 1470 1471 1470 1469 1471 1471 1468 1465 1464 1465 1466 1469 1472 1476 1478 1480
1505 1504 1504 1503 1502 1501 1500 1499 1498 1497 1496 1495 1495 1494 1493 1492 1491 1490 1490 1489 1488 1487 1486 1485 1484 1484 1483 1482 1482 1481 1483 1479 1473 1473 1473 1473 1473 1473 1472 1473 1474 1474 1475 1476 1476 1477 1479 1480 1481 1482 1483 1484 1485 1485 1484 1485 1486 1487 1484 1481 1481 1482 1480 1477 1478 1477 1476 1476 1474 1473 1472 1470 1470 1471 1470 1468 1467 1466 1465 1465 1466 1467 1467 1468 1471 1474 1477 1479
1504 1504 1503 1502 1501 1500 1499 1499 1497 1496 1495 1494 1494 1493 1492 1491 1491 1490 1489 1488 1487 1486 1485 1484 1484 1483 1482 1482 1481 1480 1481 1477 1472 1473 1472 1472 1473 1473 1473 1473 1474 1474 1474 1475 1475 1477 1478 1479 1480 1481 1483 1484 1484 1484 1484 1484 1485 1486 1483 1479 1480 1481 1478 1477 1477 1476 1475 1475 1473 1471 1472 1470 1469 1471 1471 1468 1465 1465 1466 1467 1468 1470 1471 1473 1474 1475 1476 1478
1504 1503 1502 1501 1500 1499 1499 1498 1496 1496 1495 1494 1493 1492 1491 1491 1490 1489 1488 1487 1486 1485 1484 1484 1483 1482 1481 1481 1480 1479 1478 1474 1471 1472 1472 1472 1472 1472 1473 1473 1473 1474 1474 1475 1475 1476 1477 1478 1480 1481 1483 1484 1483 1483 1483 1484 1484 1484 1482 1479 1479 1478 1476 1475 1475 1474 1473 1473 1471 1471 1471 1468 1467 1469 1469 1468 1466 1465 1466 1467 1469 1471 1473 1475 1476 1476 1477 1479
1503 1502 1501 1501 1500 1499 1498 1497 1496 1495 1494 1493 1492 1491 1490 1490 1489 1488 1487 1486 1485 1485 1484 1483 1483 1481 1481 1480 1480 1479 1474 1471 1471 1471 1471 1471 1471 1472 1473 1473 1473 1474 1474 1474 1475 1476 1477 1478 1479 1480 1482 1482 1482 1482 1482 1485 1484 1480 1479 1478 1478 1477 1475 1475 1474 1473 1472 1471 1471 1471 1469 1465 1464 1467 1468 1467 1467 1466 1466 1467 1469 1470 1473 1475 1477 1477 1478 1479
1502 1501 1501 1500 1499 1498 1497 1496 1495 1494 1493 1492 1491 1490 1489 1489 1488 1487 1486 1486 1485 1484 1483 1483 1482 1481 1480 1479 1480 1478 1471 1470 1471 1470 1470 1471 1471 1472 1472 1473 1473 1473 1474 1474 1474 1475 1475 1476 1478 1480 1481 1481 1481 1481 1481 1483 1481 1478 1478 1477 1476 1476 1474 1473 1473 1471 1471 1470 1469 1470 1468 1463 1464 1467 1467 1467 1467 1466 1467 1468 1469 1470 1472 1474 1476 1477 1477 1479
1501 1501 1500 1499 1498 1497 1496 1495 1494 1493 1492 1491 1490 1489 1488 1487 1486 1486 1485 1484 1483 1483 1482 1481 1481 1480 1479 1479 1479 1476 1470 1469 1470 1469 1470 1470 1470 1471 1472 1472 1473 1473 1473 1473 1474 1474 1475 1477 1479 1480 1481 1481 1480 1480 1479 1479 1478 1477 1477 1475 1474 1473 1472 1471 1471 1470 1470 1469 1467 1467 1466 1463 1464 1466 1464 1464 1465 1466 1466 1468 1470 1471 1472 1474 1476 1477 1478 1479
1501 1500 1499 1498 1497 1496 1495 1494 1493 1492 1491 1490 1489 1488 1487 1486 1485 1484 1484 1483 1482 1482 1481 1480 1480 1478 1478 1477 1475 1471 1469 1469 1469 1469 1469 1469 1470 1470 1471 1471 1471 1472 1473 1473 1473 1473 1475 1477 1478 1479 1479 1480 1480 1479 1477 1476 1477 1476 1476 1476 1473 1472 1470 1469 1469 1468 1468 1467 1464 1466 1469 1467 1465 1464 1461 1461 1464 1465 1466 1468 1470 1471 1473 1475 1476 1478 1478 1478
1500 1499 1498 1497 1496 1495 1494 1492 1491 1490 1490 1489 1488 1487 1486 1484 1484 1483 1482 1482 1481 1480 1480 1479 1478 1477 1477 1472 1467 1468 1468 1468 1467 1467 1467 1469 1469 1469 1470 1470 1470 1472 1472 1473 1473 1474 1476 1477 1478 1478 1478 1479 1479 1478 1476 1475 1476 1475 1475 1476 1475 1474 1470 1466 1466 1466 1466 1466 1462 1466 1474 1471 1464 1461 1460 1461 1463 1465 1468 1468 1469 1471 1473 1475 1476 1477 1478 1479
1499 1498 1497 1496 1495 1494 1492 1491 1490 1489 1488 1487 1486 1486 1484 1483 1482 1481 1481 1480 1479 1479 1478 1478 1477 1476 1475 1468 1463 1466 1465 1465 1464 1464 1466 1468 1468 1469 1469 1469 1470 1471 1471 1472 1473 1474 1475 1477 1478 1478 1478 1479 1477 1477 1476 1476 1476 1475 1476 1475 1478 1480 1472 1465 1465 1465 1465 1464 1460 1465 1475 1471 1463 1459 1459 1461 1462 1463 1466 1467 1469 1471 1472 1474 1475 1476 1477 1478
1498 1497 1496 1494 1493 1492 1491 1490 1488 1487 1487 1486 1485 1484 1482 1481 1480 1479 1479 1478 1477 1477 1477 1477 1476 1475 1473 1465 1461 1463 1462 1461 1461 1462 1465 1467 1467 1468 1468 1469 1469 1470 1471 1472 1472 1474 1476 1477 1478 1478 1477 1477 1477 1478 1478 1478 1476 1476 1479 1479 1479 1481 1474 1466 1465 1465 1465 1463 1460 1465 1473 1469 1462 1459 1458 1460 1461 1461 1464 1466 1468 1469 1471 1472 1473 1475 1477 1477
1496 1495 1494 1493 1492 1491 1489 1488 1487 1486 1485 1484 1483 1482 1481 1479 1478 1478 1477 1476 1476 1476 1476 1476 1474 1475 1473 1464 1460 1461 1461 1460 1460 1462 1463 1464 1466 1467 1468 1469 1469 1470 1471 1471 1472 1474 1476 1477 1477 1477 1476 1476 1476 1478 1479 1481 1479 1479 1482 1482 1480 1481 1478 1471 1465 1463 1464 1463 1462 1464 1468 1467 1461 1457 1457 1460 1461 1461 1463 1464 1466 1468 1469 1470 1472 1474 1475 1476
1495 1494 1493 1492 1490 1489 1488 1486 1485 1484 1483 1482 1481 1481 1479 1477 1476 1475 1474 1474 1474 1474 1475 1474 1474 1475 1470 1462 1460 1460 1460 1460 1460 1461 1462 1463 1465 1466 1468 1468 1468 1469 1470 1471 1472 1473 1475 1476 1476 1476 1475 1475 1475 1477 1483 1487 1484 1483 1484 1483 1482 1481 1479 1475 1468 1463 1463 1464 1463 1463 1464 1464 1459 1456 1457 1459 1460 1461 1462 1463 1464 1466 1467 1468 1470 1472 1473 1474
1494 1493 1491 1490 1489 1487 1486 1485 1484 1482 1481 1480 1480 1479 1478 1476 1474 1473 1472 1472 1473 1474 1474 1473 1474 1474 1464 1458 1459 1459 1460 1460 1460 1461 1461 1462 1464 1465 1467 1467 1468 1469 1470 1470 1471 1471 1473 1474 1474 1475 1474 1474 1475 1477 1484 1487 1484 1485 1484 1483 1483 1480 1478 1476 1472 1466 1463 1464 1464 1464 1465 1462 1458 1456 1457 1459 1460 1461 1461 1461 1462 1463 1465 1467 1469 1470 1472 1475
1492 1491 1490 1489 1487 1486 1485 1483 1482 1481 1480 1479 1479 1478 1476 1475 1472 1471 1471 1472 1472 1472 1472 1470 1471 1470 1460 1456 1458 1458 1459 1459 1459 1459 1460 1461 1462 1464 1466 1467 1468 1469 1470 1470 1470 1470 1471 1472 1473 1475 1474 1475 1476 1477 1479 1480 1479 1481 1482 1484 1484 1483 1478 1473 1471 1467 1464 1465 1464 1464 1463 1460 1456 1454 1455 1458 1459 1460 1460 1460 1461 1462 1464 1466 1468 1470 1473 1478
1491 1490 1488 1487 1486 1485 1484 1482 1481 1480 1478 1478 1478 1477 1476 1474 1473 1471 1471 1470 1469 1467 1467 1466 1465 1463 1458 1455 1457 1458 1458 1458 1458 1458 1458 1459 1461 1463 1464 1466 1467 1468 1469 1469 1470 1469 1469 1473 1473 1473 1474 1474 1475 1475 1476 1477 1478 1479 1481 1482 1483 1484 1479 1470 1469 1467 1464 1467 1463 1460 1460 1458 1455 1451 1451 1456 1458 1459 1460 1460 1461 1462 1463 1465 1467 1471 1474 1477
1489 1488 1487 1486 1485 1484 1483 1481 1480 1479 1478 1478 1478 1477 1477 1477 1476 1475 1472 1467 1464 1464 1463 1462 1463 1460 1454 1453 1456 1458 1459 1457 1455 1456 1457 1459 1460 1462 1464 1465 1467 1468 1468 1468 1469 1468 1469 1472 1471 1470 1472 1472 1472 1474 1475 1477 1478 1479 1480 1481 1482 1483 1477 1469 1468 1466 1463 1466 1463 1459 1460 1458 1452 1448 1447 1452 1456 1456 1456 1457 1459 1459 1461 1464 1467 1471 1473 1475
1488 1487 1486 1485 1483 1483 1482 1480 1479 1478 1477 1477 1478 1478 1478 1478 1478 1477 1474 1468 1460 1458 1459 1457 1459 1455 1449 1451 1454 1457 1461 1458 1455 1454 1455 1458 1458 1460 1462 1463 1466 1467 1467 1468 1469 1471 1472 1471 1468 1468 1470 1470 1472 1474 1475 1477 1478 1479 1481 1483 1483 1479 1475 1468 1466 1463 1461 1465 1463 1459 1461 1456 1448 1445 1444 1448 1450 1450 1450 1451 1452 1454 1457 1462 1466 1467 1469 1473
1487 1485 1484 1483 1482 1482 1480 1479 1478 1477 1477 1477 1477 1477 1478 1478 1477 1475 1475 1471 1458 1451 1453 1452 1452 1451 1446 1447 1451 1455 1458 1456 1454 1453 1453 1456 1456 1458 1460 1462 1465 1466 1467 1468 1470 1474 1473 1468 1465 1467 1469 1470 1472 1473 1475 1477 1478 1480 1481 1484 1482 1478 1479 1474 1466 1463 1463 1465 1464 1461 1462 1455 1446 1442 1439 1441 1444 1444 1446 1447 1447 1450 1454 1459 1462 1464 1466 1469
1485 1484 1483 1481 1481 1480 1479 1478 1477 1477 1476 1476 1477 1477 1477 1476 1475 1474 1472 1471 1459 1447 1446 1446 1446 1446 1441 1443 1448 1452 1452 1451 1452 1451 1451 1454 1454 1457 1458 1460 1463 1465 1466 1466 1468 1472 1469 1463 1462 1466 1468 1470 1471 1472 1475 1478 1479 1480 1479 1480 1480 1477 1478 1475 1469 1466 1464 1464 1462 1461 1464 1455 1445 1443 1438 1438 1442 1442 1444 1446 1449 1453 1455 1458 1462 1464 1467 1467
1483 1482 1481 1480 1480 1478 1478 1477 1476 1476 1476 1475 1476 1475 1476 1475 1474 1474 1471 1471 1462 1448 1443 1443 1442 1440 1438 1442 1445 1446 1448 1447 1446 1447 1449 1451 1452 1455 1457 1458 1462 1464 1465 1465 1468 1470 1466 1461 1462 1465 1467 1469 1471 1472 1473 1476 1479 1479 1475 1473 1474 1473 1473 1471 1470 1472 1472 1470 1461 1461 1471 1462 1445 1443 1441 1440 1443 1442 1443 1446 1450 1454 1455 1458 1462 1464 1467 1468
1482 1481 1480 1479 1478 1477 1477 1476 1475 1476 1474 1475 1475 1474 1476 1475 1474 1474 1472 1475 1468 1449 1442 1442 1441 1438 1437 1441 1442 1444 1449 1444 1439 1444 1447 1449 1450 1452 1455 1457 1458 1461 1462 1463 1467 1466 1461 1459 1460 1463 1466 1468 1471 1471 1470 1472 1479 1479 1469 1465 1467 1468 1470 1469 1470 1475 1476 1472 1462 1460 1473 1469 1450 1442 1443 1444 1443 1442 1444 1447 1450 1454 1455 1457 1460 1462 1464 1466
1480 1479 1478 1478 1477 1476 1476 1475 1475 1475 1474 1474 1473 1474 1475 1474 1475 1473 1473 1480 1469 1447 1441 1443 1441 1439 1437 1438 1439 1444 1447 1439 1436 1441 1443 1446 1449 1451 1455 1456 1457 1458 1458 1462 1467 1462 1456 1458 1460 1461 1464 1468 1471 1469 1465 1467 1476 1473 1460 1460 1464 1465 1467 1467 1469 1473 1470 1465 1463 1461 1466 1470 1460 1446 1444 1448 1447 1446 1448 1450 1452 1453 1455 1457 1459 1461 1462 1464
1479 1477 1476 1476 1476 1475 1474 1474 1474 1473 1473 1473 1472 1474 1474 1473 1475 1472 1477 1482 1462 1441 1441 1441 1440 1439 1437 1438 1438 1438 1438 1435 1436 1438 1439 1444 1448 1448 1453 1454 1454 1455 1454 1460 1466 1458 1453 1457 1458 1460 1464 1467 1465 1460 1459 1464 1469 1460 1452 1457 1460 1460 1463 1464 1467 1470 1468 1466 1466 1463 1463 1470 1465 1447 1443 1448 1450 1454 1453 1452 1454 1454 1455 1457 1458 1461 1462 1464
1477 1476 1475 1475 1475 1474 1473 1473 1473 1472 1472 1472 1472 1472 1472 1474 1473 1472 1483 1481 1453 1438 1441 1439 1440 1440 1438 1439 1439 1436 1435 1434 1435 1436 1438 1444 1446 1447 1450 1450 1451 1453 1453 1456 1459 1454 1452 1453 1454 1457 1461 1461 1456 1453 1456 1461 1460 1451 1450 1456 1457 1459 1462 1463 1466 1466 1467 1471 1467 1461 1462 1469 1464 1448 1448 1453 1452 1457 1457 1454 1455 1455 1455 1457 1457 1461 1462 1464
1476 1475 1474 1473 1473 1473 1472 1472 1471 1471 1471 1471 1471 1471 1471 1473 1473 1478 1487 1474 1450 1442 1442 1440 1442 1442 1441 1442 1441 1438 1437 1435 1434 1435 1439 1442 1444 1446 1448 1448 1450 1453 1455 1455 1454 1452 1451 1451 1452 1454 1454 1453 1450 1449 1452 1454 1452 1448 1452 1456 1457 1462 1461 1462 1467 1464 1469 1475 1465 1456 1458 1466 1466 1455 1457 1462 1457 1457 1457 1456 1457 1456 1456 1458 1458 1460 1461 1464
1474 1473 1472 1471 1472 1471 1471 1471 1470 1470 1471 1470 1471 1470 1470 1473 1477 1484 1481 1462 1450 1448 1445 1444 1445 1442 1443 1444 1442 1440 1438 1437 1435 1436 1440 1442 1445 1447 1448 1450 1452 1455 1458 1457 1455 1452 1450 1451 1452 1448 1447 1448 1447 1447 1447 1448 1449 1451 1454 1457 1461 1465 1463 1466 1469 1467 1476 1477 1459 1452 1457 1463 1466 1460 1461 1464 1458 1454 1453 1452 1453 1454 1454 1456 1458 1460 1461 1463
1473 1472 1471 1471 1470 1470 1470 1469 1469 1469 1470 1470 1471 1470 1471 1476 1481 1481 1469 1455 1454 1455 1451 1451 1448 1444 1444 1442 1441 1439 1437 1438 1436 1436 1440 1442 1445 1447 1447 1450 1452 1458 1463 1461 1458 1455 1450 1448 1448 1445 1443 1444 1447 1449 1448 1447 1450 1454 1456 1459 1467 1472 1471 1473 1474 1474 1479 1471 1455 1456 1459 1460 1463 1463 1463 1462 1456 1452 1450 1447 1448 1449 1452 1454 1457 1460 1462 1464
1472 1471 1470 1470 1469 1469 1469 1468 1468 1468 1469 1470 1471 1470 1473 1478 1478 1473 1466 1461 1459 1457 1455 1454 1450 1446 1444 1441 1438 1435 1436 1439 1437 1437 1439 1440 1444 1446 1445 1447 1447 1452 1459 1461 1461 1459 1453 1448 1445 1444 1442 1439 1442 1448 1450 1449 1450 1453 1454 1457 1466 1474 1479 1482 1481 1481 1478 1464 1455 1458 1458 1458 1461 1463 1463 1461 1454 1449 1448 1449 1449 1448 1451 1453 1456 1459 1461 1464
1470 1469 1469 1469 1469 1468 1468 1467 1467 1467 1469 1470 1470 1471 1475 1478 1474 1469 1468 1466 1461 1457 1456 1455 1452 1447 1443 1442 1438 1434 1437 1440 1437 1437 1440 1442 1446 1447 1447 1447 1446 1447 1452 1458 1461 1459 1459 1455 1444 1441 1440 1437 1437 1440 1441 1442 1445 1448 1447 1449 1457 1463 1471 1477 1474 1473 1469 1460 1457 1459 1460 1464 1465 1463 1462 1458 1453 1448 1448 1451 1453 1453 1453 1455 1457 1459 1461 1463
1469 1468 1468 1469 1469 1468 1468 1467 1467 1467 1468 1469 1471 1474 1476 1474 1472 1471 1470 1466 1462 1460 1458 1455 1453 1449 1445 1443 1439 1435 1436 1439 1439 1438 1439 1442 1446 1446 1445 1444 1444 1446 1450 1457 1460 1457 1460 1455 1441 1436 1437 1435 1435 1434 1432 1436 1442 1447 1447 1447 1452 1451 1454 1465 1469 1468 1466 1462 1464 1467 1468 1470 1467 1462 1460 1457 1453 1451 1452 1453 1454 1456 1457 1456 1457 1459 1460 1463
1468 1467 1468 1468 1468 1469 1468 1468 1467 1468 1468 1469 1472 1475 1475 1471 1471 1471 1469 1466 1465 1464 1461 1457 1453 1451 1450 1446 1442 1437 1434 1436 1440 1441 1441 1442 1443 1443 1443 1441 1441 1442 1445 1451 1456 1455 1458 1452 1439 1436 1436 1432 1433 1432 1430 1434 1440 1447 1448 1445 1445 1442 1444 1458 1469 1473 1471 1467 1471 1477 1474 1470 1467 1464 1460 1459 1457 1456 1457 1457 1456 1457 1458 1457 1457 1458 1460 1462
1468 1467 1467 1468 1468 1469 1469 1468 1468 1468 1469 1470 1472 1474 1475 1472 1470 1469 1467 1466 1466 1464 1465 1464 1458 1453 1455 1453 1447 1442 1437 1437 1440 1442 1443 1443 1442 1441 1440 1439 1439 1440 1439 1444 1450 1452 1455 1451 1440 1437 1437 1431 1429 1430 1429 1430 1433 1441 1444 1440 1441 1445 1447 1453 1464 1473 1473 1469 1473 1479 1478 1474 1473 1472 1467 1464 1463 1461 1461 1461 1458 1458 1459 1460 1460 1459 1460 1462
1467 1467 1467 1468 1468 1469 1469 1469 1469 1469 1469 1471 1474 1475 1475 1472 1468 1467 1467 1466 1466 1464 1466 1467 1461 1454 1456 1458 1452 1444 1441 1442 1443 1443 1444 1445 1444 1440 1439 1439 1438 1438 1438 1440 1446 1448 1451 1452 1443 1437 1438 1433 1428 1430 1433 1431 1430 1433 1435 1434 1439 1448 1453 1455 1461 1468 1470 1474 1478 1479 1480 1479 1476 1475 1472 1468 1468 1465 1463 1464 1463 1460 1461 1463 1464 1464 1463 1464
1467 1467 1467 1468 1469 1469 1470 1470 1470 1470 1470 1472 1476 1474 1472 1471 1467 1466 1466 1465 1465 1465 1465 1465 1461 1457 1457 1458 1453 1446 1443 1444 1445 1444 1445 1446 1444 1440 1439 1440 1439 1439 1439 1439 1444 1446 1449 1454 1449 1438 1436 1435 1432 1434 1438 1437 1432 1431 1433 1435 1437 1443 1449 1453 1457 1459 1461 1472 1482 1481 1480 1476 1471 1472 1471 1468 1469 1467 1464 1466 1466 1463 1462 1464 1467 1469 1470 1470
1466 1466 1468 1469 1469 1470 1470 1470 1470 1471 1471 1474 1476 1473 1471 1470 1467 1465 1465 1465 1464 1464 1463 1462 1461 1460 1457 1454 1451 1448 1445 1445 1445 1445 1444 1444 1444 1440 1438 1439 1439 1440 1440 1440 1443 1445 1448 1454 1453 1443 1436 1438 1439 1438 1440 1440 1437 1436 1437 1440 1443 1444 1446 1450 1455 1457 1456 1463 1474 1479 1479 1474 1468 1468 1469 1468 1468 1467 1465 1465 1465 1465 1465 1464 1466 1470 1474 1475
1466 1467 1468 1469 1470 1470 1470 1471 1471 1472 1473 1474 1475 1473 1470 1468 1466 1465 1464 1463 1462 1461 1460 1459 1460 1460 1457 1453 1450 1448 1446 1445 1445 1445 1444 1443 1444 1441 1437 1437 1438 1439 1440 1442 1443 1444 1448 1452 1455 1451 1444 1444 1444 1440 1439 1439 1439 1442 1444 1448 1451 1449 1447 1451 1458 1461 1458 1459 1466 1470 1472 1472 1469 1467 1468 1469 1468 1467 1467 1466 1464 1466 1467 1466 1465 1468 1472 1475
1466 1468 1469 1470 1470 1470 1470 1472 1473 1473 1473 1473 1472 1470 1469 1467 1465 1464 1463 1462 1461 1459 1458 1458 1457 1457 1455 1453 1450 1448 1447 1446 1445 1445 1445 1444 1443 1441 1438 1437 1437 1438 1441 1444 1444 1443 1446 1451 1454 1454 1450 1449 1446 1441 1441 1440 1438 1441 1446 1451 1453 1451 1448 1449 1453 1457 1459 1463 1467 1466 1465 1469 1470 1468 1467 1469 1468 1468 1469 1469 1468 1468 1468 1468 1468 1469 1473 1475
1467 1468 1469 1470 1471 1471 1471 1473 1473 1473 1472 1471 1470 1469 1467 1466 1465 1464 1462 1461 1460 1459 1458 1458 1456 1455 1454 1452 1451 1449 1448 1447 1446 1446 1446 1444 1442 1441 1439 1438 1438 1438 1440 1444 1444 1443 1446 1451 1453 1453 1452 1449 1445 1441 1441 1440 1438 1440 1446 1451 1452 1452 1453 1451 1448 1449 1453 1460 1464 1463 1467 1470 1470 1469 1469 1468 1468 1470 1472 1473 1473 1473 1471 1471 1473 1474 1476 1477
1468 1469 1470 1470 1471 1472 1473 1473 1474 1473 1472 1471 1470 1468 1467 1465 1464 1464 1463 1461 1460 1459 1459 1458 1457 1456 1454 1453 1452 1451 1449 1447 1447 1447 1447 1445 1443 1441 1440 1439 1439 1440 1441 1444 1444 1444 1450 1456 1455 1456 1460 1459 1454 1449 1444 1441 1442 1445 1449 1451 1451 1452 1453 1452 1450 1448 1451 1458 1458 1456 1465 1471 1470 1469 1470 1469 1470 1473 1475 1476 1478 1477 1475 1475 1477 1477 1477 1477
1467 1469 1470 1471 1471 1472 1473 1473 1473 1473 1473 1472 1472 1470 1468 1466 1464 1463 1463 1462 1460 1459 1460 1459 1456 1455 1455 1453 1452 1452 1450 1447 1447 1447 1448 1447 1444 1442 1441 1440 1440 1441 1442 1443 1442 1443 1451 1458 1455 1456 1463 1466 1464 1459 1454 1451 1451 1452 1451 1449 1450 1451 1448 1449 1451 1449 1450 1458 1457 1453 1461 1470 1471 1470 1472 1472 1473 1474 1476 1478 1479 1479 1479 1478 1478 1478 1478 1478
1467 1469 1470 1471 1472 1472 1472 1472 1472 1472 1473 1473 1472 1471 1470 1468 1465 1463 1462 1462 1461 1459 1460 1459 1457 1456 1456 1454 1453 1453 1452 1449 1448 1449 1451 1450 1447 1445 1444 1442 1442 1443 1443 1443 1443 1444 1451 1458 1460 1457 1458 1461 1462 1459 1457 1456 1454 1454 1452 1449 1449 1452 1450 1450 1454 1455 1456 1461 1460 1458 1462 1467 1469 1471 1472 1473 1473 1475 1477 1478 1478 1479 1481 1481 1480 1479 1479 1479
1467 1468 1470 1471 1472 1472 1472 1472 1472 1472 1472 1472 1472 1471 1471 1470 1467 1464 1462 1462 1461 1460 1460 1460 1459 1458 1458 1457 1455 1455 1455 1452 1451 1452 1453 1453 1451 1447 1445 1444 1444 1444 1444 1443 1443 1446 1451 1459 1463 1462 1461 1462 1462 1459 1457 1457 1456 1458 1458 1455 1453 1452 1450 1449 1455 1461 1464 1462 1460 1462 1465 1465 1466 1470 1472 1473 1474 1476 1478 1479 1480 1481 1482 1482 1480 1479 1479 1479
1467 1468 1469 1470 1472 1473 1473 1472 1472 1472 1471 1471 1471 1471 1470 1470 1469 1467 1465 1463 1462 1461 1460 1461 1461 1460 1461 1460 1457 1457 1456 1454 1454 1455 1455 1456 1456 1451 1448 1446 1446 1446 1445 1445 1445 1448 1454 1461 1464 1463 1463 1465 1464 1460 1458 1459 1462 1465 1465 1462 1460 1456 1452 1453 1461 1467 1467 1461 1459 1463 1467 1467 1468 1470 1473 1475 1476 1478 1480 1482 1483 1484 1484 1482 1481 1480 1480 1480
1467 1468 1470 1470 1470 1472 1472 1472 1472 1472 1471 1471 1471 1471 1470 1470 1469 1468 1466 1464 1464 1463 1462 1464 1464 1462 1461 1460 1458 1460 1459 1456 1456 1458 1459 1461 1461 1457 1453 1451 1449 1448 1447 1448 1449 1450 1455 1463 1465 1462 1463 1466 1467 1463 1461 1462 1463 1466 1469 1468 1465 1462 1459 1461 1466 1469 1467 1464 1464 1466 1468 1471 1472 1472 1474 1476 1478 1480 1482 1484 1485 1485 1484 1483 1482 1482 1482 1482
1468 1468 1469 1470 1470 1471 1472 1472 1472 1472 1472 1472 1471 1470 1470 1470 1469 1468 1466 1466 1466 1465 1464 1465 1465 1463 1462 1461 1460 1461 1460 1458 1458 1460 1461 1463 1462 1458 1458 1457 1453 1451 1450 1451 1453 1452 1454 1462 1466 1463 1464 1470 1471 1467 1464 1465 1464 1465 1469 1470 1468 1466 1464 1464 1467 1469 1467 1467 1469 1469 1469 1474 1476 1474 1475 1478 1480 1482 1484 1486 1487 1488 1487 1485 1484 1484 1484 1484
1468 1468 1469 1470 1471 1473 1473 1472 1473 1473 1472 1473 1472 1470 1469 1469 1469 1468 1466 1465 1466 1466 1464 1465 1465 1463 1461 1461 1460 1460 1459 1458 1458 1458 1460 1463 1461 1459 1460 1459 1456 1454 1453 1453 1455 1454 1454 1462 1467 1464 1465 1473 1476 1471 1468 1467 1465 1464 1468 1474 1476 1474 1470 1469 1470 1471 1468 1467 1471 1472 1472 1476 1479 1477 1477 1480 1482 1483 1486 1488 1489 1490 1490 1489 1487 1487 1486 1487
1468 1468 1469 1469 1472 1474 1474 1474 1475 1474 1473 1474 1473 1471 1470 1469 1469 1468 1467 1465 1464 1464 1464 1464 1464 1462 1461 1460 1460 1459 1458 1456 1455 1456 1459 1460 1459 1458 1458 1456 1455 1455 1454 1454 1456 1457 1457 1461 1465 1464 1466 1475 1478 1473 1471 1470 1468 1469 1475 1482 1483 1480 1477 1474 1473 1473 1471 1468 1469 1471 1473 1477 1480 1479 1480 1484 1485 1486 1489 1491 1492 1492 1493 1492 1491 1489 1489 1490